COSMOS 1743

Last updated on Sun Jun 21 2026 00:02:14 GMT+0000 (Coordinated Universal Time)

1 16719U 86034A 26171.40340493 .00043156 00000+0 40137-3 0 9995 2 16719 82.5280 325.3117 0004125 257.8396 102.2402 15.67204069196293
UTC large
Height (km)
Speed (km/s)
/
Latitude / Longitude
Inclination (degrees)
Orbital Period (minutes)
Azimuth
Elevation
Range (km)
Doppler Factor

Next 0 passes for location: London (51.5072 / 0.1276)

No passes found over London.
COSMOS 1743